Time,TemperatureF,DewpointF,PressureIn,WindDirection,WindDirectionDegrees,WindSpeedMPH,WindSpeedGustMPH,Humidity,HourlyPrecipIn,Conditions,Clouds,dailyrainin,SoftwareType,DateUTC
2013-03-31 00:00:00,41.2,28.5,29.88,WSW,248,0.3,0.7,60,0.00,,,0.00,WUHU216HW,2013-03-31 04:00:00,
2013-03-31 00:01:00,41.2,28.5,29.88,WSW,248,0.4,0.7,60,0.00,,,0.00,WUHU216HW,2013-03-31 04:01:00,
2013-03-31 00:02:00,41.2,28.5,29.88,WSW,248,0.1,0.4,60,0.00,,,0.00,WUHU216HW,2013-03-31 04:02:00,
2013-03-31 00:07:00,41.0,28.3,29.87,WSW,248,0.6,0.7,60,0.00,,,0.00,WUHU216HW,2013-03-31 04:07:00,
2013-03-31 00:12:00,40.9,28.1,29.87,SW,220,0.4,0.9,60,0.00,,,0.00,WUHU216HW,2013-03-31 04:12:00,
2013-03-31 00:17:00,40.5,28.1,29.87,WSW,253,0.6,0.7,61,0.00,,,0.00,WUHU216HW,2013-03-31 04:17:00,
2013-03-31 00:23:00,40.1,27.7,29.87,North,0,0.0,0.0,61,0.00,,,0.00,WUHU216HW,2013-03-31 04:23:00,
2013-03-31 00:28:00,40.0,27.9,29.87,North,0,0.0,0.0,62,0.00,,,0.00,WUHU216HW,2013-03-31 04:28:00,
2013-03-31 00:33:00,39.6,27.5,29.87,SE,135,0.0,0.2,62,0.00,,,0.00,WUHU216HW,2013-03-31 04:33:00,
2013-03-31 00:38:00,39.2,27.6,29.86,North,0,0.0,0.0,63,0.00,,,0.00,WUHU216HW,2013-03-31 04:38:00,
2013-03-31 00:43:00,38.9,27.3,29.86,ESE,113,0.1,0.2,63,0.00,,,0.00,WUHU216HW,2013-03-31 04:43:00,
2013-03-31 00:48:00,38.7,27.1,29.86,SE,135,0.3,0.7,63,0.00,,,0.00,WUHU216HW,2013-03-31 04:48:00,
2013-03-31 00:53:00,38.3,26.8,29.86,SE,135,0.0,0.2,63,0.00,,,0.00,WUHU216HW,2013-03-31 04:53:00,
2013-03-31 00:58:00,38.0,26.5,29.86,North,0,0.0,0.0,63,0.00,,,0.00,WUHU216HW,2013-03-31 04:58:00,
2013-03-31 01:03:00,37.8,26.3,29.85,North,0,0.0,0.0,63,0.00,,,0.00,WUHU216HW,2013-03-31 05:03:00,
2013-03-31 01:09:00,37.8,26.3,29.85,North,0,0.0,0.0,63,0.00,,,0.00,WUHU216HW,2013-03-31 05:09:00,
2013-03-31 01:14:00,37.6,26.6,29.85,North,0,0.0,0.0,64,0.00,,,0.00,WUHU216HW,2013-03-31 05:14:00,
2013-03-31 01:19:00,37.6,26.9,29.85,WSW,248,0.1,0.4,65,0.00,,,0.00,WUHU216HW,2013-03-31 05:19:00,
2013-03-31 01:24:00,37.8,27.1,29.84,SE,135,0.2,0.4,65,0.00,,,0.00,WUHU216HW,2013-03-31 05:24:00,
2013-03-31 01:29:00,37.8,27.1,29.84,ENE,68,0.0,0.2,65,0.00,,,0.00,WUHU216HW,2013-03-31 05:29:00,
2013-03-31 01:34:00,37.8,27.1,29.84,North,0,0.0,0.0,65,0.00,,,0.00,WUHU216HW,2013-03-31 05:34:00,
2013-03-31 01:39:00,37.8,27.5,29.84,SW,225,0.1,0.4,66,0.00,,,0.00,WUHU216HW,2013-03-31 05:39:00,
2013-03-31 01:44:00,37.8,27.5,29.84,North,0,0.0,0.0,66,0.00,,,0.00,WUHU216HW,2013-03-31 05:44:00,
2013-03-31 01:49:00,37.8,27.5,29.83,ESE,115,0.5,1.1,66,0.00,,,0.00,WUHU216HW,2013-03-31 05:49:00,
2013-03-31 01:54:00,38.0,27.6,29.83,ESE,113,0.3,0.4,66,0.00,,,0.00,WUHU216HW,2013-03-31 05:54:00,
2013-03-31 01:59:00,38.2,28.2,29.83,SSW,200,1.2,1.6,67,0.00,,,0.00,WUHU216HW,2013-03-31 05:59:00,
2013-03-31 02:04:00,38.5,28.4,29.82,ESE,119,0.2,0.2,67,0.00,,,0.00,WUHU216HW,2013-03-31 06:04:00,
2013-03-31 02:09:00,38.5,28.4,29.82,SE,135,0.2,0.4,67,0.00,,,0.00,WUHU216HW,2013-03-31 06:09:00,
2013-03-31 02:14:00,38.5,28.1,29.82,West,270,0.1,0.4,66,0.00,,,0.00,WUHU216HW,2013-03-31 06:14:00,
2013-03-31 02:20:00,38.7,28.3,29.81,North,0,0.0,0.0,66,0.00,,,0.00,WUHU216HW,2013-03-31 06:20:00,
2013-03-31 02:25:00,38.9,28.5,29.81,SSE,158,0.0,0.2,66,0.00,,,0.00,WUHU216HW,2013-03-31 06:25:00,
2013-03-31 02:30:00,39.1,28.5,29.81,SSE,159,0.4,0.7,66,0.00,,,0.00,WUHU216HW,2013-03-31 06:30:00,
2013-03-31 02:35:00,39.2,28.7,29.81,South,170,0.5,0.9,66,0.00,,,0.00,WUHU216HW,2013-03-31 06:35:00,
2013-03-31 02:40:00,39.2,28.7,29.80,ESE,113,0.7,1.1,66,0.00,,,0.00,WUHU216HW,2013-03-31 06:40:00,
2013-03-31 02:45:00,39.2,29.1,29.80,WSW,248,0.2,0.4,67,0.00,,,0.00,WUHU216HW,2013-03-31 06:45:00,
2013-03-31 02:50:00,39.4,29.3,29.80,SSW,192,0.7,1.8,67,0.00,,,0.00,WUHU216HW,2013-03-31 06:50:00,
2013-03-31 02:56:00,39.6,29.1,29.79,SW,215,0.2,0.4,66,0.00,,,0.00,WUHU216HW,2013-03-31 06:56:00,
2013-03-31 03:01:00,39.6,29.1,29.79,SSE,153,0.8,1.8,66,0.00,,,0.00,WUHU216HW,2013-03-31 07:01:00,
2013-03-31 03:06:00,39.8,29.3,29.79,South,173,1.4,2.0,66,0.00,,,0.00,WUHU216HW,2013-03-31 07:06:00,
2013-03-31 03:11:00,40.0,29.4,29.79,SW,225,0.2,0.2,66,0.00,,,0.00,WUHU216HW,2013-03-31 07:11:00,
2013-03-31 03:16:00,40.0,29.8,29.79,South,189,1.0,1.6,67,0.00,,,0.00,WUHU216HW,2013-03-31 07:16:00,
2013-03-31 03:21:00,40.0,29.4,29.79,West,260,0.5,1.1,66,0.00,,,0.00,WUHU216HW,2013-03-31 07:21:00,
2013-03-31 03:26:00,39.8,29.3,29.78,WSW,248,0.5,0.7,66,0.00,,,0.00,WUHU216HW,2013-03-31 07:26:00,
2013-03-31 03:31:00,39.6,29.4,29.78,WSW,248,0.9,1.1,67,0.00,,,0.00,WUHU216HW,2013-03-31 07:31:00,
2013-03-31 03:36:00,39.6,29.4,29.78,North,0,0.0,0.0,67,0.00,,,0.00,WUHU216HW,2013-03-31 07:36:00,
2013-03-31 03:42:00,39.6,29.4,29.77,WSW,248,0.3,0.7,67,0.00,,,0.00,WUHU216HW,2013-03-31 07:42:00,
2013-03-31 03:47:00,39.6,29.4,29.77,SW,225,0.0,0.2,67,0.00,,,0.00,WUHU216HW,2013-03-31 07:47:00,
2013-03-31 03:52:00,39.6,29.4,29.77,SW,236,1.2,1.6,67,0.00,,,0.00,WUHU216HW,2013-03-31 07:52:00,
2013-03-31 03:57:00,39.8,29.6,29.77,SW,236,0.9,1.6,67,0.00,,,0.00,WUHU216HW,2013-03-31 07:57:00,
2013-03-31 04:02:00,40.0,29.8,29.76,SW,226,1.1,1.6,67,0.00,,,0.00,WUHU216HW,2013-03-31 08:02:00,
2013-03-31 04:07:00,40.0,29.8,29.76,SSW,203,0.3,0.4,67,0.00,,,0.00,WUHU216HW,2013-03-31 08:07:00,
2013-03-31 04:12:00,40.0,29.8,29.76,South,176,1.2,1.6,67,0.00,,,0.00,WUHU216HW,2013-03-31 08:12:00,
2013-03-31 04:17:00,40.1,30.0,29.76,SW,225,0.2,0.4,67,0.00,,,0.00,WUHU216HW,2013-03-31 08:17:00,
2013-03-31 04:22:00,40.3,30.2,29.76,SSE,161,0.3,1.1,67,0.00,,,0.00,WUHU216HW,2013-03-31 08:22:00,
2013-03-31 04:28:00,40.5,30.3,29.75,SW,225,0.3,0.7,67,0.00,,,0.00,WUHU216HW,2013-03-31 08:28:00,
2013-03-31 04:33:00,40.7,30.5,29.75,SSW,202,1.0,1.3,67,0.00,,,0.00,WUHU216HW,2013-03-31 08:33:00,
2013-03-31 04:38:00,40.7,30.5,29.75,WSW,240,0.9,1.3,67,0.00,,,0.00,WUHU216HW,2013-03-31 08:38:00,
2013-03-31 04:43:00,40.9,30.7,29.74,NNE,19,0.3,0.7,67,0.00,,,0.00,WUHU216HW,2013-03-31 08:43:00,
2013-03-31 04:48:00,41.0,30.9,29.74,SSE,158,0.3,0.4,67,0.00,,,0.00,WUHU216HW,2013-03-31 08:48:00,
2013-03-31 04:53:00,40.9,30.7,29.74,SW,225,0.6,0.7,67,0.00,,,0.00,WUHU216HW,2013-03-31 08:53:00,
2013-03-31 04:58:00,40.9,30.7,29.74,WSW,248,1.3,1.8,67,0.00,,,0.00,WUHU216HW,2013-03-31 08:58:00,
2013-03-31 05:03:00,40.9,31.2,29.74,SE,132,0.1,0.2,68,0.00,,,0.00,WUHU216HW,2013-03-31 09:03:00,
2013-03-31 05:09:00,40.7,31.0,29.73,SSE,158,0.4,0.4,68,0.00,,,0.00,WUHU216HW,2013-03-31 09:09:00,
2013-03-31 05:14:00,40.7,31.0,29.72,SE,135,0.6,0.9,68,0.00,,,0.00,WUHU216HW,2013-03-31 09:14:00,
2013-03-31 05:19:00,40.7,31.0,29.72,ESE,122,1.3,2.2,68,0.00,,,0.00,WUHU216HW,2013-03-31 09:19:00,
2013-03-31 05:24:00,40.9,31.5,29.72,ESE,118,1.1,1.3,69,0.00,,,0.00,WUHU216HW,2013-03-31 09:24:00,
2013-03-31 05:29:00,40.9,31.5,29.72,ESE,120,1.0,1.3,69,0.00,,,0.00,WUHU216HW,2013-03-31 09:29:00,
2013-03-31 05:34:00,40.9,31.2,29.72,WSW,249,1.1,1.3,68,0.00,,,0.00,WUHU216HW,2013-03-31 09:34:00,
2013-03-31 05:39:00,40.7,31.3,29.71,SSE,149,0.7,0.9,69,0.00,,,0.00,WUHU216HW,2013-03-31 09:39:00,
2013-03-31 05:44:00,40.5,31.2,29.71,North,0,0.0,0.0,69,0.00,,,0.00,WUHU216HW,2013-03-31 09:44:00,
2013-03-31 05:50:00,40.5,31.2,29.71,WSW,248,0.7,0.9,69,0.00,,,0.00,WUHU216HW,2013-03-31 09:50:00,
2013-03-31 05:55:00,40.3,31.0,29.71,SW,219,0.7,1.1,69,0.00,,,0.00,WUHU216HW,2013-03-31 09:55:00,
2013-03-31 06:00:00,40.1,30.8,29.71,North,0,0.0,0.0,69,0.00,,,0.00,WUHU216HW,2013-03-31 10:00:00,
2013-03-31 06:05:00,40.0,31.0,29.71,North,0,0.0,0.0,70,0.00,,,0.00,WUHU216HW,2013-03-31 10:05:00,
2013-03-31 06:11:00,40.0,31.0,29.71,North,0,0.0,0.0,70,0.00,,,0.00,WUHU216HW,2013-03-31 10:11:00,
2013-03-31 06:16:00,40.0,31.0,29.70,North,0,0.0,0.0,70,0.00,,,0.00,WUHU216HW,2013-03-31 10:16:00,
2013-03-31 06:21:00,40.0,31.0,29.71,SSW,203,0.1,0.2,70,0.00,,,0.00,WUHU216HW,2013-03-31 10:21:00,
2013-03-31 06:27:00,40.0,31.0,29.71,North,0,0.0,0.0,70,0.00,,,0.00,WUHU216HW,2013-03-31 10:27:00,
2013-03-31 06:32:00,40.0,31.3,29.70,North,0,0.0,0.0,71,0.00,,,0.00,WUHU216HW,2013-03-31 10:32:00,
2013-03-31 06:37:00,40.0,31.0,29.70,North,0,0.0,0.0,70,0.00,,,0.00,WUHU216HW,2013-03-31 10:37:00,
2013-03-31 06:42:00,40.1,31.1,29.70,SW,229,0.9,1.3,70,0.00,,,0.00,WUHU216HW,2013-03-31 10:42:00,
2013-03-31 06:47:00,40.3,31.3,29.70,SSE,152,1.1,1.8,70,0.00,,,0.00,WUHU216HW,2013-03-31 10:47:00,
2013-03-31 06:52:00,40.3,31.7,29.70,SW,225,0.1,0.2,71,0.00,,,0.00,WUHU216HW,2013-03-31 10:52:00,
2013-03-31 06:57:00,40.5,31.9,29.70,WSW,248,0.8,1.3,71,0.00,,,0.00,WUHU216HW,2013-03-31 10:57:00,
2013-03-31 07:02:00,40.7,32.1,29.70,WSW,250,0.8,1.8,71,0.00,,,0.00,WUHU216HW,2013-03-31 11:02:00,
2013-03-31 07:07:00,40.7,32.1,29.71,West,267,2.3,2.5,71,0.00,,,0.00,WUHU216HW,2013-03-31 11:07:00,
2013-03-31 07:12:00,40.9,32.2,29.70,WSW,237,1.7,3.4,71,0.00,,,0.00,WUHU216HW,2013-03-31 11:12:00,
2013-03-31 07:18:00,41.0,32.4,29.71,SW,221,1.6,2.0,71,0.00,,,0.00,WUHU216HW,2013-03-31 11:18:00,
2013-03-31 07:23:00,41.0,32.4,29.71,WSW,248,1.2,1.8,71,0.00,,,0.00,WUHU216HW,2013-03-31 11:23:00,
2013-03-31 07:28:00,41.0,32.4,29.71,SW,228,0.9,1.6,71,0.00,,,0.00,WUHU216HW,2013-03-31 11:28:00,
2013-03-31 07:33:00,41.0,32.4,29.71,SW,225,1.4,1.8,71,0.00,,,0.00,WUHU216HW,2013-03-31 11:33:00,
2013-03-31 07:38:00,41.0,32.4,29.71,SW,232,0.7,0.9,71,0.00,,,0.00,WUHU216HW,2013-03-31 11:38:00,
2013-03-31 07:43:00,41.0,32.4,29.70,SE,135,0.0,0.2,71,0.00,,,0.00,WUHU216HW,2013-03-31 11:43:00,
2013-03-31 07:48:00,41.0,32.4,29.70,SW,225,0.1,0.2,71,0.00,,,0.00,WUHU216HW,2013-03-31 11:48:00,
2013-03-31 07:53:00,40.9,32.5,29.70,SW,215,1.1,2.5,72,0.00,,,0.00,WUHU216HW,2013-03-31 11:53:00,
2013-03-31 07:58:00,40.9,33.1,29.70,WSW,240,1.4,2.5,74,0.00,,,0.00,WUHU216HW,2013-03-31 11:58:00,
2013-03-31 08:04:00,41.0,33.3,29.69,SSW,205,1.4,2.0,74,0.00,,,0.00,WUHU216HW,2013-03-31 12:04:00,
2013-03-31 08:09:00,41.4,34.0,29.69,South,186,0.9,1.1,75,0.01,,,0.01,WUHU216HW,2013-03-31 12:09:00,
2013-03-31 08:14:00,41.4,34.0,29.69,WSW,248,0.4,1.1,75,0.01,,,0.01,WUHU216HW,2013-03-31 12:14:00,
2013-03-31 08:19:00,41.4,34.0,29.69,SSW,193,0.8,1.3,75,0.01,,,0.01,WUHU216HW,2013-03-31 12:19:00,
2013-03-31 08:24:00,41.6,34.6,29.68,SW,220,0.6,0.9,76,0.01,,,0.01,WUHU216HW,2013-03-31 12:24:00,
2013-03-31 08:29:00,41.6,34.6,29.68,North,0,0.0,0.0,76,0.01,,,0.01,WUHU216HW,2013-03-31 12:29:00,
2013-03-31 08:34:00,41.8,34.8,29.68,SSW,196,1.6,2.2,76,0.01,,,0.01,WUHU216HW,2013-03-31 12:34:00,
2013-03-31 08:39:00,41.8,35.0,29.68,West,263,1.3,1.8,77,0.01,,,0.01,WUHU216HW,2013-03-31 12:39:00,
2013-03-31 08:44:00,41.9,35.2,29.68,SW,225,0.9,1.1,77,0.01,,,0.01,WUHU216HW,2013-03-31 12:44:00,
2013-03-31 08:50:00,42.1,35.4,29.69,SW,234,1.3,1.6,77,0.01,,,0.01,WUHU216HW,2013-03-31 12:50:00,
2013-03-31 08:55:00,42.3,35.6,29.68,SW,227,2.0,2.5,77,0.01,,,0.01,WUHU216HW,2013-03-31 12:55:00,
2013-03-31 09:00:00,42.3,35.9,29.68,SE,145,2.1,2.9,78,0.01,,,0.01,WUHU216HW,2013-03-31 13:00:00,
2013-03-31 09:05:00,42.5,36.1,29.68,SW,217,1.7,2.5,78,0.01,,,0.01,WUHU216HW,2013-03-31 13:05:00,
2013-03-31 09:10:00,42.8,36.5,29.68,SW,226,1.8,2.5,78,0.00,,,0.01,WUHU216HW,2013-03-31 13:10:00,
2013-03-31 09:15:00,43.2,37.1,29.68,SSW,212,2.7,3.1,79,0.00,,,0.01,WUHU216HW,2013-03-31 13:15:00,
2013-03-31 09:21:00,43.6,37.4,29.67,SW,219,4.4,5.8,79,0.00,,,0.01,WUHU216HW,2013-03-31 13:21:00,
2013-03-31 09:26:00,43.9,37.8,29.67,SW,215,4.0,5.1,79,0.00,,,0.01,WUHU216HW,2013-03-31 13:26:00,
2013-03-31 09:31:00,44.1,37.7,29.67,SW,234,2.6,3.4,78,0.00,,,0.01,WUHU216HW,2013-03-31 13:31:00,
2013-03-31 09:36:00,44.3,37.8,29.67,SW,228,4.0,5.6,78,0.00,,,0.01,WUHU216HW,2013-03-31 13:36:00,
2013-03-31 09:41:00,44.3,37.8,29.67,WSW,243,2.8,4.0,78,0.00,,,0.01,WUHU216HW,2013-03-31 13:41:00,
2013-03-31 09:46:00,44.3,37.8,29.66,WSW,248,3.0,4.0,78,0.00,,,0.01,WUHU216HW,2013-03-31 13:46:00,
2013-03-31 09:51:00,44.3,37.8,29.66,SW,217,3.0,4.3,78,0.00,,,0.01,WUHU216HW,2013-03-31 13:51:00,
2013-03-31 09:56:00,44.5,38.0,29.67,SW,232,3.0,3.6,78,0.00,,,0.01,WUHU216HW,2013-03-31 13:56:00,
2013-03-31 10:01:00,44.5,38.3,29.66,SW,236,5.4,8.3,79,0.00,,,0.01,WUHU216HW,2013-03-31 14:01:00,
2013-03-31 10:07:00,44.8,38.7,29.66,WSW,240,3.7,4.7,79,0.00,,,0.01,WUHU216HW,2013-03-31 14:07:00,
2013-03-31 10:12:00,45.0,38.9,29.66,West,263,4.9,5.6,79,0.00,,,0.01,WUHU216HW,2013-03-31 14:12:00,
2013-03-31 10:17:00,45.2,39.4,29.66,WSW,245,5.9,6.3,80,0.00,,,0.01,WUHU216HW,2013-03-31 14:17:00,
2013-03-31 10:22:00,45.4,39.2,29.66,WSW,242,4.6,6.0,79,0.00,,,0.01,WUHU216HW,2013-03-31 14:22:00,
2013-03-31 10:27:00,45.4,39.2,29.66,West,276,3.9,4.3,79,0.00,,,0.01,WUHU216HW,2013-03-31 14:27:00,
2013-03-31 10:32:00,45.5,39.8,29.66,SW,235,7.2,8.3,80,0.00,,,0.01,WUHU216HW,2013-03-31 14:32:00,
2013-03-31 10:38:00,45.9,40.1,29.66,WSW,253,3.5,3.8,80,0.00,,,0.01,WUHU216HW,2013-03-31 14:38:00,
2013-03-31 10:43:00,46.1,40.3,29.67,WNW,298,5.3,6.5,80,0.00,,,0.01,WUHU216HW,2013-03-31 14:43:00,
2013-03-31 10:48:00,45.7,39.6,29.66,West,279,6.9,7.6,79,0.00,,,0.01,WUHU216HW,2013-03-31 14:48:00,
2013-03-31 10:53:00,45.7,40.0,29.66,WSW,252,5.6,6.3,80,0.00,,,0.01,WUHU216HW,2013-03-31 14:53:00,
2013-03-31 10:58:00,45.4,39.2,29.67,West,278,2.9,4.7,79,0.00,,,0.01,WUHU216HW,2013-03-31 14:58:00,
2013-03-31 11:03:00,45.4,39.6,29.66,WSW,241,6.9,7.8,80,0.00,,,0.01,WUHU216HW,2013-03-31 15:03:00,
2013-03-31 11:08:00,45.0,39.5,29.66,WSW,252,5.9,8.5,81,0.00,,,0.01,WUHU216HW,2013-03-31 15:08:00,
2013-03-31 11:14:00,44.8,39.3,29.66,WSW,238,3.7,4.7,81,0.00,,,0.01,WUHU216HW,2013-03-31 15:14:00,
2013-03-31 11:19:00,44.6,39.2,29.66,West,263,4.7,6.0,81,0.00,,,0.01,WUHU216HW,2013-03-31 15:19:00,
2013-03-31 11:24:00,44.8,39.7,29.66,West,269,1.9,2.9,82,0.00,,,0.01,WUHU216HW,2013-03-31 15:24:00,
2013-03-31 11:29:00,45.4,40.2,29.66,WNW,291,5.2,6.9,82,0.00,,,0.01,WUHU216HW,2013-03-31 15:29:00,
2013-03-31 11:34:00,45.7,40.2,29.66,WSW,256,3.9,5.8,81,0.00,,,0.01,WUHU216HW,2013-03-31 15:34:00,
2013-03-31 11:39:00,46.3,40.8,29.66,West,259,3.6,6.3,81,0.00,,,0.01,WUHU216HW,2013-03-31 15:39:00,
2013-03-31 11:44:00,46.3,40.5,29.66,NW,323,6.5,8.1,80,0.00,,,0.01,WUHU216HW,2013-03-31 15:44:00,
2013-03-31 11:49:00,46.4,40.7,29.66,West,266,5.6,8.5,80,0.00,,,0.01,WUHU216HW,2013-03-31 15:49:00,
2013-03-31 11:54:00,47.2,41.3,29.66,WSW,239,5.1,6.9,80,0.00,,,0.01,WUHU216HW,2013-03-31 15:54:00,
2013-03-31 11:59:00,47.5,41.0,29.66,NW,305,7.9,10.5,78,0.00,,,0.01,WUHU216HW,2013-03-31 15:59:00,
2013-03-31 12:04:00,47.5,40.0,29.66,West,265,9.5,10.3,75,0.00,,,0.01,WUHU216HW,2013-03-31 16:04:00,
2013-03-31 12:10:00,47.5,40.0,29.66,West,272,5.7,8.1,75,0.00,,,0.01,WUHU216HW,2013-03-31 16:10:00,
2013-03-31 12:15:00,47.7,39.8,29.66,West,261,7.0,9.8,74,0.00,,,0.01,WUHU216HW,2013-03-31 16:15:00,
2013-03-31 12:20:00,48.1,40.1,29.66,WNW,289,6.5,6.9,74,0.00,,,0.01,WUHU216HW,2013-03-31 16:20:00,
2013-03-31 12:25:00,48.4,39.8,29.66,West,268,6.1,10.5,72,0.00,,,0.01,WUHU216HW,2013-03-31 16:25:00,
2013-03-31 12:30:00,49.0,40.3,29.66,WSW,245,7.4,9.4,72,0.00,,,0.01,WUHU216HW,2013-03-31 16:30:00,
2013-03-31 12:35:00,49.9,40.5,29.66,WSW,258,9.8,13.4,70,0.00,,,0.01,WUHU216HW,2013-03-31 16:35:00,
2013-03-31 12:41:00,50.4,41.0,29.66,SW,231,4.7,4.9,70,0.00,,,0.01,WUHU216HW,2013-03-31 16:41:00,
2013-03-31 12:46:00,51.5,41.7,29.66,West,262,7.0,7.8,69,0.00,,,0.01,WUHU216HW,2013-03-31 16:46:00,
2013-03-31 12:51:00,51.3,41.1,29.66,WNW,293,6.8,10.3,68,0.00,,,0.01,WUHU216HW,2013-03-31 16:51:00,
2013-03-31 12:56:00,51.7,41.0,29.66,West,276,7.4,9.2,67,0.00,,,0.01,WUHU216HW,2013-03-31 16:56:00,
2013-03-31 13:01:00,50.8,39.0,29.66,West,267,7.9,9.6,64,0.00,,,0.01,WUHU216HW,2013-03-31 17:01:00,
2013-03-31 13:06:00,51.5,40.1,29.66,West,275,10.2,12.1,65,0.00,,,0.01,WUHU216HW,2013-03-31 17:06:00,
2013-03-31 13:12:00,52.7,41.3,29.65,WNW,300,5.5,6.9,65,0.00,,,0.01,WUHU216HW,2013-03-31 17:12:00,
2013-03-31 13:17:00,53.8,41.5,29.65,SW,225,10.8,13.0,63,0.00,,,0.01,WUHU216HW,2013-03-31 17:17:00,
2013-03-31 13:22:00,53.8,39.3,29.65,NW,313,6.2,9.2,58,0.00,,,0.01,WUHU216HW,2013-03-31 17:22:00,
2013-03-31 13:27:00,52.9,39.8,29.65,WSW,248,6.6,7.8,61,0.00,,,0.01,WUHU216HW,2013-03-31 17:27:00,
2013-03-31 13:32:00,54.0,40.9,29.64,WSW,242,9.7,11.4,61,0.00,,,0.01,WUHU216HW,2013-03-31 17:32:00,
2013-03-31 13:38:00,54.7,40.1,29.64,West,276,7.6,9.6,58,0.00,,,0.01,WUHU216HW,2013-03-31 17:38:00,
2013-03-31 13:43:00,54.5,39.5,29.64,WSW,249,11.2,15.0,57,0.00,,,0.01,WUHU216HW,2013-03-31 17:43:00,
2013-03-31 13:48:00,54.9,39.9,29.64,WSW,252,3.8,6.5,57,0.00,,,0.01,WUHU216HW,2013-03-31 17:48:00,
2013-03-31 13:53:00,54.5,39.5,29.64,WNW,284,4.6,5.1,57,0.00,,,0.01,WUHU216HW,2013-03-31 17:53:00,
2013-03-31 13:58:00,53.3,37.4,29.64,WSW,253,4.6,6.9,55,0.00,,,0.01,WUHU216HW,2013-03-31 17:58:00,
2013-03-31 14:03:00,54.4,38.9,29.64,NW,307,4.7,6.7,56,0.00,,,0.01,WUHU216HW,2013-03-31 18:03:00,
2013-03-31 14:08:00,54.4,37.5,29.64,NNW,338,6.5,7.8,53,0.00,,,0.01,WUHU216HW,2013-03-31 18:08:00,
2013-03-31 14:13:00,54.4,38.0,29.63,WSW,258,8.2,9.2,54,0.00,,,0.01,WUHU216HW,2013-03-31 18:13:00,
2013-03-31 14:19:00,54.9,37.1,29.63,NW,325,5.9,7.6,51,0.00,,,0.01,WUHU216HW,2013-03-31 18:19:00,
2013-03-31 14:24:00,54.9,37.1,29.63,North,352,5.3,6.7,51,0.00,,,0.01,WUHU216HW,2013-03-31 18:24:00,
2013-03-31 14:29:00,55.1,37.3,29.63,NW,315,5.9,8.7,51,0.00,,,0.01,WUHU216HW,2013-03-31 18:29:00,
2013-03-31 14:34:00,55.8,38.3,29.63,WSW,248,10.7,12.3,52,0.00,,,0.01,WUHU216HW,2013-03-31 18:34:00,
2013-03-31 14:39:00,56.3,38.4,29.63,WNW,288,8.5,9.6,51,0.00,,,0.01,WUHU216HW,2013-03-31 18:39:00,
2013-03-31 14:45:00,56.9,38.5,29.63,WNW,290,7.4,7.8,50,0.00,,,0.01,WUHU216HW,2013-03-31 18:45:00,
2013-03-31 14:50:00,56.9,38.5,29.63,WSW,248,7.2,8.7,50,0.00,,,0.01,WUHU216HW,2013-03-31 18:50:00,
2013-03-31 14:55:00,57.4,38.4,29.62,NW,306,6.5,9.8,49,0.00,,,0.01,WUHU216HW,2013-03-31 18:55:00,
2013-03-31 15:00:00,58.1,38.5,29.62,WSW,256,8.1,8.7,48,0.00,,,0.01,WUHU216HW,2013-03-31 19:00:00,
2013-03-31 15:06:00,58.1,38.0,29.62,WNW,294,8.9,11.4,47,0.00,,,0.01,WUHU216HW,2013-03-31 19:06:00,
2013-03-31 15:11:00,57.2,38.4,29.62,West,277,6.2,8.3,49,0.00,,,0.01,WUHU216HW,2013-03-31 19:11:00,
2013-03-31 15:16:00,58.1,39.7,29.62,West,274,7.8,8.5,50,0.00,,,0.01,WUHU216HW,2013-03-31 19:16:00,
2013-03-31 15:21:00,58.7,39.1,29.62,WNW,286,9.1,10.3,48,0.00,,,0.01,WUHU216HW,2013-03-31 19:21:00,
2013-03-31 15:26:00,58.5,38.9,29.62,SW,221,6.8,9.6,48,0.00,,,0.01,WUHU216HW,2013-03-31 19:26:00,
2013-03-31 15:31:00,58.3,37.5,29.62,West,265,7.7,10.7,46,0.00,,,0.01,WUHU216HW,2013-03-31 19:31:00,
2013-03-31 15:36:00,57.8,37.6,29.62,WNW,283,8.1,9.8,47,0.00,,,0.01,WUHU216HW,2013-03-31 19:36:00,
2013-03-31 15:42:00,57.8,38.8,29.61,WSW,248,6.7,6.7,49,0.00,,,0.01,WUHU216HW,2013-03-31 19:42:00,
2013-03-31 15:47:00,58.5,38.3,29.61,West,270,2.2,5.1,47,0.00,,,0.01,WUHU216HW,2013-03-31 19:47:00,
2013-03-31 15:52:00,58.7,37.9,29.61,WSW,250,8.3,11.6,46,0.00,,,0.01,WUHU216HW,2013-03-31 19:52:00,
2013-03-31 15:57:00,58.1,37.4,29.61,NW,324,3.1,6.0,46,0.00,,,0.01,WUHU216HW,2013-03-31 19:57:00,
2013-03-31 16:03:00,57.8,37.6,29.61,West,261,7.1,8.7,47,0.00,,,0.01,WUHU216HW,2013-03-31 20:03:00,
2013-03-31 16:08:00,59.0,38.8,29.61,WSW,237,8.9,9.2,47,0.00,,,0.01,WUHU216HW,2013-03-31 20:08:00,
2013-03-31 16:13:00,59.4,38.0,29.61,West,263,6.3,7.6,45,0.00,,,0.01,WUHU216HW,2013-03-31 20:13:00,
2013-03-31 16:18:00,59.8,38.3,29.61,WSW,240,8.6,10.1,45,0.00,,,0.01,WUHU216HW,2013-03-31 20:18:00,
2013-03-31 16:23:00,58.7,36.7,29.61,West,260,5.9,6.9,44,0.00,,,0.01,WUHU216HW,2013-03-31 20:23:00,
2013-03-31 16:28:00,58.7,37.9,29.61,WSW,245,6.0,6.5,46,0.00,,,0.01,WUHU216HW,2013-03-31 20:28:00,
2013-03-31 16:33:00,58.7,37.9,29.61,WSW,248,7.5,9.2,46,0.00,,,0.01,WUHU216HW,2013-03-31 20:33:00,
2013-03-31 16:38:00,58.7,37.9,29.61,WSW,246,7.0,7.6,46,0.00,,,0.01,WUHU216HW,2013-03-31 20:38:00,
2013-03-31 16:43:00,59.2,37.8,29.61,West,270,6.1,7.6,45,0.00,,,0.01,WUHU216HW,2013-03-31 20:43:00,
2013-03-31 16:48:00,59.8,37.7,29.61,West,275,8.9,9.6,44,0.00,,,0.01,WUHU216HW,2013-03-31 20:48:00,
2013-03-31 16:53:00,58.3,35.8,29.61,West,271,5.1,6.3,43,0.00,,,0.01,WUHU216HW,2013-03-31 20:53:00,
2013-03-31 16:59:00,57.6,36.4,29.60,WNW,287,4.8,7.2,45,0.00,,,0.01,WUHU216HW,2013-03-31 20:59:00,
2013-03-31 17:04:00,57.4,36.7,29.61,WNW,291,4.7,5.6,46,0.00,,,0.01,WUHU216HW,2013-03-31 21:04:00,
2013-03-31 17:09:00,56.5,35.9,29.60,WNW,292,6.8,8.5,46,0.00,,,0.01,WUHU216HW,2013-03-31 21:09:00,
2013-03-31 17:14:00,56.5,36.5,29.60,West,268,4.9,5.6,47,0.00,,,0.01,WUHU216HW,2013-03-31 21:14:00,
2013-03-31 17:20:00,56.2,36.1,29.60,West,267,4.2,6.5,47,0.00,,,0.01,WUHU216HW,2013-03-31 21:20:00,
2013-03-31 17:25:00,56.5,36.5,29.60,WSW,254,7.9,10.5,47,0.00,,,0.01,WUHU216HW,2013-03-31 21:25:00,
2013-03-31 17:30:00,56.5,36.5,29.60,WSW,244,5.6,5.8,47,0.00,,,0.01,WUHU216HW,2013-03-31 21:30:00,
2013-03-31 17:35:00,56.5,36.5,29.60,West,261,7.6,12.8,47,0.00,,,0.01,WUHU216HW,2013-03-31 21:35:00,
2013-03-31 17:40:00,55.8,35.2,29.60,WSW,258,9.6,10.7,46,0.00,,,0.01,WUHU216HW,2013-03-31 21:40:00,
2013-03-31 17:45:00,55.4,34.8,29.60,West,270,8.9,8.9,46,0.00,,,0.01,WUHU216HW,2013-03-31 21:45:00,
2013-03-31 17:50:00,55.3,34.7,29.60,WNW,286,9.3,12.3,46,0.00,,,0.01,WUHU216HW,2013-03-31 21:50:00,
2013-03-31 17:55:00,54.9,34.4,29.61,WNW,290,5.9,9.6,46,0.00,,,0.01,WUHU216HW,2013-03-31 21:55:00,
2013-03-31 18:00:00,54.4,34.5,29.61,WNW,303,4.9,8.5,47,0.00,,,0.01,WUHU216HW,2013-03-31 22:00:00,
2013-03-31 18:05:00,53.6,34.9,29.61,WNW,288,4.5,5.1,49,0.00,,,0.01,WUHU216HW,2013-03-31 22:05:00,
2013-03-31 18:10:00,53.1,35.5,29.61,NW,312,5.6,6.9,51,0.00,,,0.01,WUHU216HW,2013-03-31 22:10:00,
2013-03-31 18:16:00,52.7,35.1,29.61,North,0,5.2,7.6,51,0.00,,,0.01,WUHU216HW,2013-03-31 22:16:00,
2013-03-31 18:21:00,52.4,35.7,29.61,NNW,346,4.3,6.9,53,0.00,,,0.01,WUHU216HW,2013-03-31 22:21:00,
2013-03-31 18:26:00,51.8,36.1,29.61,NW,319,3.3,3.4,55,0.00,,,0.01,WUHU216HW,2013-03-31 22:26:00,
2013-03-31 18:32:00,51.3,36.1,29.62,NNW,335,3.4,5.4,56,0.00,,,0.01,WUHU216HW,2013-03-31 22:32:00,
2013-03-31 18:37:00,51.1,36.4,29.62,NW,319,5.8,6.9,57,0.00,,,0.01,WUHU216HW,2013-03-31 22:37:00,
2013-03-31 18:43:00,50.9,37.5,29.62,NNW,334,4.0,4.7,60,0.00,,,0.01,WUHU216HW,2013-03-31 22:43:00,
2013-03-31 18:48:00,50.6,37.6,29.62,NW,324,4.5,5.6,61,0.00,,,0.01,WUHU216HW,2013-03-31 22:48:00,
2013-03-31 18:53:00,50.0,37.1,29.62,WNW,301,3.5,4.0,61,0.00,,,0.01,WUHU216HW,2013-03-31 22:53:00,
2013-03-31 18:58:00,50.4,37.8,29.62,NW,307,4.3,6.0,62,0.00,,,0.01,WUHU216HW,2013-03-31 22:58:00,
2013-03-31 19:03:00,50.4,37.8,29.63,NW,319,3.9,4.5,62,0.00,,,0.01,WUHU216HW,2013-03-31 23:03:00,
2013-03-31 19:08:00,50.2,37.3,29.62,NNW,347,3.4,4.0,61,0.00,,,0.01,WUHU216HW,2013-03-31 23:08:00,
2013-03-31 19:13:00,49.9,37.0,29.63,NW,324,5.0,5.8,61,0.00,,,0.01,WUHU216HW,2013-03-31 23:13:00,
2013-03-31 19:19:00,49.7,37.2,29.62,WNW,302,4.6,6.3,62,0.00,,,0.01,WUHU216HW,2013-03-31 23:19:00,
2013-03-31 19:24:00,49.3,36.5,29.63,NW,325,1.8,2.9,61,0.00,,,0.01,WUHU216HW,2013-03-31 23:24:00,
2013-03-31 19:29:00,49.0,36.1,29.63,WNW,289,4.1,5.6,61,0.00,,,0.01,WUHU216HW,2013-03-31 23:29:00,
2013-03-31 19:34:00,48.6,35.8,29.63,NW,304,5.3,6.3,61,0.00,,,0.01,WUHU216HW,2013-03-31 23:34:00,
2013-03-31 19:39:00,48.2,35.5,29.63,NW,318,2.9,3.8,61,0.00,,,0.01,WUHU216HW,2013-03-31 23:39:00,
2013-03-31 19:44:00,47.9,35.5,29.63,WNW,293,5.0,7.8,62,0.00,,,0.01,WUHU216HW,2013-03-31 23:44:00,
2013-03-31 19:49:00,47.3,35.4,29.63,WNW,302,4.6,5.8,63,0.00,,,0.01,WUHU216HW,2013-03-31 23:49:00,
2013-03-31 19:54:00,46.4,34.9,29.62,West,281,4.9,6.9,64,0.00,,,0.01,WUHU216HW,2013-03-31 23:54:00,
2013-03-31 19:59:00,45.7,34.6,29.62,WNW,293,3.4,4.0,65,0.00,,,0.01,WUHU216HW,2013-03-31 23:59:00,
2013-03-31 20:05:00,45.5,35.2,29.62,WNW,285,5.8,8.7,67,0.00,,,0.01,WUHU216HW,2013-04-01 00:05:00,
2013-03-31 20:10:00,45.4,35.0,29.62,WNW,286,1.9,2.9,67,0.00,,,0.01,WUHU216HW,2013-04-01 00:10:00,
2013-03-31 20:15:00,45.4,35.0,29.62,NW,326,1.3,1.8,67,0.00,,,0.01,WUHU216HW,2013-04-01 00:15:00,
2013-03-31 20:20:00,45.2,35.2,29.62,WNW,292,2.1,2.7,68,0.00,,,0.01,WUHU216HW,2013-04-01 00:20:00,
2013-03-31 20:25:00,45.2,35.2,29.62,WSW,248,0.9,1.3,68,0.00,,,0.01,WUHU216HW,2013-04-01 00:25:00,
2013-03-31 20:31:00,45.0,35.1,29.62,WNW,302,0.8,2.2,68,0.00,,,0.01,WUHU216HW,2013-04-01 00:31:00,
2013-03-31 20:36:00,45.0,35.1,29.62,NW,315,1.5,2.5,68,0.00,,,0.01,WUHU216HW,2013-04-01 00:36:00,
2013-03-31 20:41:00,44.8,34.9,29.63,West,268,0.9,1.1,68,0.00,,,0.01,WUHU216HW,2013-04-01 00:41:00,
2013-03-31 20:46:00,44.6,35.1,29.63,NW,307,1.2,1.8,69,0.00,,,0.01,WUHU216HW,2013-04-01 00:46:00,
2013-03-31 20:51:00,44.5,35.3,29.63,NNW,331,0.6,0.7,70,0.00,,,0.01,WUHU216HW,2013-04-01 00:51:00,
2013-03-31 20:56:00,44.5,35.3,29.63,NNW,341,0.9,1.3,70,0.00,,,0.01,WUHU216HW,2013-04-01 00:56:00,
2013-03-31 21:01:00,44.5,35.3,29.63,NW,310,2.5,4.3,70,0.00,,,0.01,WUHU216HW,2013-04-01 01:01:00,
2013-03-31 21:06:00,44.6,36.2,29.63,NNW,331,1.8,3.4,72,0.00,,,0.01,WUHU216HW,2013-04-01 01:06:00,
2013-03-31 21:11:00,44.6,36.2,29.64,NW,307,1.3,2.0,72,0.00,,,0.01,WUHU216HW,2013-04-01 01:11:00,
2013-03-31 21:16:00,44.6,36.2,29.64,NW,312,4.4,6.7,72,0.00,,,0.01,WUHU216HW,2013-04-01 01:16:00,
2013-03-31 21:21:00,44.6,36.2,29.64,NNW,335,3.2,4.7,72,0.00,,,0.01,WUHU216HW,2013-04-01 01:21:00,
2013-03-31 21:27:00,44.6,35.8,29.64,NW,313,2.2,6.0,71,0.00,,,0.01,WUHU216HW,2013-04-01 01:27:00,
2013-03-31 21:32:00,44.5,34.9,29.65,WNW,299,3.7,5.4,69,0.00,,,0.01,WUHU216HW,2013-04-01 01:32:00,
2013-03-31 21:37:00,44.3,34.0,29.65,NW,315,4.7,5.8,67,0.00,,,0.01,WUHU216HW,2013-04-01 01:37:00,
2013-03-31 21:42:00,44.1,33.5,29.65,NW,318,3.9,8.7,66,0.00,,,0.01,WUHU216HW,2013-04-01 01:42:00,
2013-03-31 21:47:00,43.9,32.9,29.65,NW,326,2.7,5.1,65,0.00,,,0.01,WUHU216HW,2013-04-01 01:47:00,
2013-03-31 21:52:00,43.7,32.8,29.66,NW,306,3.5,4.7,65,0.00,,,0.01,WUHU216HW,2013-04-01 01:52:00,
2013-03-31 21:58:00,43.7,32.3,29.66,NW,319,3.3,6.9,64,0.00,,,0.01,WUHU216HW,2013-04-01 01:58:00,
2013-03-31 22:03:00,43.6,32.1,29.66,WNW,302,3.8,6.3,64,0.00,,,0.01,WUHU216HW,2013-04-01 02:03:00,
2013-03-31 22:08:00,43.6,32.1,29.66,West,275,3.2,4.5,64,0.00,,,0.01,WUHU216HW,2013-04-01 02:08:00,
2013-03-31 22:13:00,43.2,31.8,29.66,WNW,302,1.8,4.0,64,0.00,,,0.01,WUHU216HW,2013-04-01 02:13:00,
2013-03-31 22:18:00,43.2,31.8,29.66,NW,309,1.7,2.0,64,0.00,,,0.01,WUHU216HW,2013-04-01 02:18:00,
2013-03-31 22:23:00,43.2,32.2,29.66,West,279,3.9,5.4,65,0.00,,,0.01,WUHU216HW,2013-04-01 02:23:00,
2013-03-31 22:29:00,43.0,32.1,29.66,NW,306,5.1,7.6,65,0.00,,,0.01,WUHU216HW,2013-04-01 02:29:00,
2013-03-31 22:34:00,43.0,32.1,29.66,WNW,292,6.3,7.6,65,0.00,,,0.01,WUHU216HW,2013-04-01 02:34:00,
2013-03-31 22:39:00,42.8,32.2,29.66,West,278,3.5,4.9,66,0.00,,,0.01,WUHU216HW,2013-04-01 02:39:00,
2013-03-31 22:44:00,42.8,32.2,29.66,NNW,331,2.1,3.4,66,0.00,,,0.01,WUHU216HW,2013-04-01 02:44:00,
2013-03-31 22:49:00,42.7,32.9,29.67,West,275,7.8,10.7,68,0.00,,,0.01,WUHU216HW,2013-04-01 02:49:00,
2013-03-31 22:54:00,42.3,33.3,29.67,WNW,282,5.1,6.3,70,0.00,,,0.01,WUHU216HW,2013-04-01 02:54:00,
2013-03-31 22:59:00,41.9,33.3,29.67,WNW,301,4.1,5.4,71,0.00,,,0.01,WUHU216HW,2013-04-01 02:59:00,
2013-03-31 23:05:00,41.8,32.8,29.67,NNW,328,4.4,5.4,70,0.00,,,0.01,WUHU216HW,2013-04-01 03:05:00,
2013-03-31 23:10:00,41.6,32.6,29.67,NW,306,2.8,6.0,70,0.00,,,0.01,WUHU216HW,2013-04-01 03:10:00,
2013-03-31 23:15:00,41.2,32.2,29.67,NW,311,3.4,4.5,70,0.00,,,0.01,WUHU216HW,2013-04-01 03:15:00,
2013-03-31 23:21:00,40.9,31.9,29.67,WNW,301,4.1,5.8,70,0.00,,,0.01,WUHU216HW,2013-04-01 03:21:00,
2013-03-31 23:26:00,40.7,31.7,29.67,West,268,5.8,6.9,70,0.00,,,0.01,WUHU216HW,2013-04-01 03:26:00,
2013-03-31 23:31:00,40.7,31.3,29.67,WNW,285,8.7,10.1,69,0.00,,,0.01,WUHU216HW,2013-04-01 03:31:00,
2013-03-31 23:36:00,40.5,30.8,29.67,WNW,291,6.7,7.6,68,0.00,,,0.01,WUHU216HW,2013-04-01 03:36:00,
2013-03-31 23:42:00,40.1,30.4,29.68,WNW,283,5.0,8.5,68,0.00,,,0.01,WUHU216HW,2013-04-01 03:42:00,
2013-03-31 23:47:00,39.8,30.1,29.68,West,277,9.5,10.5,68,0.00,,,0.01,WUHU216HW,2013-04-01 03:47:00,
2013-03-31 23:52:00,39.4,30.1,29.68,NW,311,7.4,10.5,69,0.00,,,0.01,WUHU216HW,2013-04-01 03:52:00,
2013-03-31 23:57:00,39.2,29.9,29.68,NW,308,4.4,6.3,69,0.00,,,0.01,WUHU216HW,2013-04-01 03:57:00,